軌道要素
Epoch 2002 Sept. 3.0 TT = JDT 2452520.5
T 2002 Sept. 4.71447 TT Muraoka
q 2.3095346 (2000.0) P Q
n 0.14438670 Peri. 196.44481 -0.85988936 +0.49918938
a 3.5984702 Node 14.97690 -0.40937305 -0.54937067
e 0.3581899 Incl. 24.40329 -0.30496555 -0.67007599
P 6.83
From 104 observations 1975-1996, mean residual 0".75.
Nongravitational
parameters A1 = +0.58 +/- 0.22, A2 = -0.0714 +/- 0.0029.
|